Date,TemperatureHighF,TemperatureAvgF,TemperatureLowF,DewpointHighF,DewpointAvgF,DewpointLowF,HumidityHigh,HumidityAvg,HumidityLow,PressureMaxIn,PressureMinIn,WindSpeedMaxMPH,WindSpeedAvgMPH,GustSpeedMaxMPH,PrecipitationSumIn
2013-3-1,30.4,27.2,20.8,29.8,22.4,17.3,99,82,70,29.96,29.81,8,4,11,0.00
2013-3-2,31.1,22.6,14.5,20.9,17.8,14.5,100,83,56,29.96,29.90,8,3,11,0.00
2013-3-3,35.4,22.5,10.8,21.2,17.1,10.8,100,82,51,29.90,29.84,8,1,11,0.00
2013-3-4,39.7,22.8,7.9,28.6,16.1,7.9,100,78,49,29.96,29.87,6,1,9,0.00
2013-3-5,33.8,27.1,20.7,28.3,22.2,15.4,100,82,68,29.93,29.66,10,4,15,0.00
2013-3-6,39.2,33.5,27.0,34.2,30.9,27.0,100,91,70,30.05,29.75,9,3,15,0.00
2013-3-7,37.4,32.1,21.6,33.3,26.4,21.0,100,82,53,30.22,30.02,8,2,10,0.00
2013-3-8,46.4,29.3,14.9,32.4,22.5,14.9,100,80,46,30.31,30.17,6,1,8,0.00
2013-3-9,42.8,35.3,23.9,37.7,30.2,23.9,100,83,60,30.19,29.75,8,3,11,0.00
2013-3-10,51.6,45.6,41.2,49.8,43.8,35.6,100,94,70,29.78,29.52,7,2,10,0.32
2013-3-11,53.1,44.8,34.3,52.9,44.0,34.3,100,98,75,29.55,29.31,9,3,14,0.16
2013-3-12,35.4,32.3,28.8,35.4,31.4,25.6,100,97,75,29.72,29.49,8,2,12,0.04
2013-3-13,33.6,27.4,23.4,28.8,21.3,13.6,100,80,53,30.05,29.69,10,3,16,0.00
2013-3-14,26.4,25.7,25.2,20.0,18.8,17.6,77,75,71,30.05,30.02,2,0,4,0.00
2013-3-17,34.9,29.4,23.7,21.5,16.7,11.9,78,59,51,30.08,29.93,7,3,11,0.00
2013-3-18,34.0,28.1,21.2,34.0,27.3,17.9,100,97,78,29.93,29.37,8,3,13,0.00
2013-3-19,30.2,24.3,20.3,30.2,22.2,14.9,100,93,60,29.78,29.43,8,3,17,0.00
2013-3-20,27.0,21.8,11.8,23.0,17.1,11.8,100,83,58,29.81,29.72,8,2,13,0.00
2013-3-21,32.5,25.4,11.1,28.9,21.9,11.1,100,87,71,29.81,29.72,7,2,13,0.00
2013-3-22,39.2,29.9,22.3,26.2,23.1,19.2,100,77,54,29.87,29.78,6,1,10,0.12
2013-3-23,35.6,29.5,21.9,28.0,25.4,21.9,100,86,68,29.96,29.84,6,2,9,0.00
2013-3-24,39.4,30.7,21.9,29.8,25.7,19.0,100,83,56,29.87,29.52,12,4,17,0.00
2013-3-25,39.4,34.3,30.6,30.4,27.8,24.2,92,78,56,29.81,29.49,12,6,19,0.00
2013-3-26,42.4,34.6,29.5,41.0,33.4,29.5,100,96,66,29.99,29.81,9,2,13,0.04
2013-3-27,45.9,36.6,29.3,35.2,28.7,22.5,100,76,48,30.08,29.99,10,2,14,0.12
2013-3-28,52.0,38.2,29.1,35.2,27.9,20.0,100,71,36,30.11,30.05,8,1,11,0.00
2013-3-29,48.0,28.8,22.5,39.7,26.3,22.5,100,92,48,30.11,30.08,4,0,6,0.00
2013-3-30,58.5,52.7,48.4,36.6,29.4,23.5,63,43,29,29.87,29.69,8,3,11,0.00
2013-3-31,49.1,43.7,36.7,46.2,40.1,31.7,100,88,63,29.69,29.52,10,3,17,0.08